星链-35279(STARLINK-35279)

导读

STARLINK-35279是美国SpaceX星链互联网星座的成员,于2025年10月19日发射升空,归属美国所有。星链项目旨在搭建全球卫星互联网通信网络,为全球提供覆盖广泛的高速互联网服务,该卫星入轨后将承担星座组网运营任务,助力拓展星链服务覆盖范围、提升网络服务能力。

基本信息
目录编号:
66069
目录名称:
STARLINK-35279
国际标识:
2025-235M
轨道中心:
EARTH
卫星名称:
星链-35279
卫星全名:
星链-35279(STARLINK-35279)
卫星状态:
在轨 (已飞行237 天)
发射日期:
2025-10-19 UTC
国别 :
美国 (US)
星等 :
--
轨道信息
数据来源 国际轨道数据 AOE轨道数据
星历时间 2026-06-13T13:55:20+0800
6小时前
查看轨道信息
2026-06-09T00:00:00+0800
4天前
查看轨道信息
半长轴 6853.339km 6853.4km
偏心率 0.0001282 0.0001041
轨道倾角 53.158° 53.159°
近地点辐角 92.833° 95.490°
升交点赤经 161.275° 182.553°
平近点角 267.282° 220.178°
近地点 474.323km 474.549km
远地点 476.081km 475.977km
周期 94.105分钟 94.106分钟
每日圈数 15.302047 15.301842
详细信息
固有亮度:
5
最大亮度:
2.5
卫星平台:
Starlink V1.0
覆盖范围:
全球
运营商:
太空探索技术公司
运营商所在国:
美国
制造商(研发单位):
太空探索技术公司
制造商所在国:
美国
使用方式:
暂无
卫星简介
Starlink 计划是 SpaceX 推出的全球卫星互联网项目,通过发射低轨道卫星,为全球尤其是偏远地区提供高速、低延迟的互联网服务。自 2019 年起,Starlink 已部署数千颗卫星,旨在缩小全球数字鸿沟,推动互联网普及。该项目还为军事、航空等行业提供通信支持,带来广泛经济效益。
2D轨道图
3D轨道图
轨道高度分析图
轨道倾角分析图
轨道综合分析图
查看轨道综合分析图